| time (UTC) | temp F | wind direction | speed knots | gust knots | rain 1hr in | rain 24hr in | rain mn in | humidity % | barometer mb |
| 20260901133552 | 69 | 294 | 4.3 | 10.4 | 0.00 | 0.14 | 0.00 | 61 | 1020.3 |
| 20260901132052 | 69 | 312 | 6.1 | 10.4 | 0.00 | 0.14 | 0.00 | 60 | 1020.4 |
| 20260901131552 | 69 | 298 | 7.8 | 12.2 | 0.00 | 0.14 | 0.00 | 60 | 1020.4 |
| 20260901124552 | 69 | 297 | 6.1 | 11.3 | 0.00 | 0.14 | 0.00 | 59 | 1020.4 |
| 20260901124052 | 70 | 297 | 6.1 | 12.2 | 0.00 | 0.14 | 0.00 | 60 | 1020.4 |
| 20260901123552 | 70 | 303 | 6.1 | 10.4 | 0.00 | 0.14 | 0.00 | 61 | 1020.4 |
| 20260901122552 | 69 | 282 | 4.3 | 11.3 | 0.00 | 0.14 | 0.00 | 63 | 1020.4 |
| 20260901122052 | 68 | 289 | 6.1 | 10.4 | 0.00 | 0.14 | 0.00 | 64 | 1020.4 |
| 20260901121552 | 69 | 306 | 7.8 | 12.2 | 0.00 | 0.14 | 0.00 | 64 | 1020.4 |
| 20260901121052 | 68 | 252 | 4.3 | 10.4 | 0.00 | 0.14 | 0.00 | 66 | 1020.5 |
| 20260901115552 | 69 | 314 | 5.2 | 13.9 | 0.00 | 0.14 | 0.00 | 65 | 1020.4 |
| 20260901115053 | 69 | 306 | 5.2 | 11.3 | 0.00 | 0.14 | 0.00 | 66 | 1020.4 |
| 20260901114553 | 69 | 298 | 7.0 | 14.8 | 0.00 | 0.14 | 0.00 | 65 | 1020.4 |
| 20260901114052 | 69 | 275 | 6.1 | 13.9 | 0.00 | 0.14 | 0.00 | 65 | 1020.4 |
| 20260901113552 | 68 | 270 | 4.3 | 11.3 | 0.00 | 0.14 | 0.00 | 65 | 1020.4 |
| 20260901113052 | 68 | 283 | 7.0 | 12.2 | 0.00 | 0.14 | 0.00 | 62 | 1020.4 |
| 20260901112552 | 69 | 281 | 6.1 | 12.2 | 0.00 | 0.17 | 0.00 | 63 | 1020.4 |
| 20260901112053 | 69 | 248 | 5.2 | 10.4 | 0.00 | 0.19 | 0.00 | 65 | 1020.3 |
| 20260901111551 | 68 | 294 | 6.1 | 10.4 | 0.00 | 0.20 | 0.00 | 64 | 1020.3 |
| 20260901110052 | 68 | 301 | 6.1 | 11.3 | 0.00 | 0.22 | 0.00 | 65 | 1020.4 |
| 20260901104552 | 68 | 304 | 5.2 | 12.2 | 0.00 | 0.22 | 0.00 | 66 | 1020.2 |
| 20260901104052 | 68 | 304 | 6.1 | 12.2 | 0.00 | 0.23 | 0.00 | 67 | 1020.2 |
| 20260901103552 | 68 | 300 | 6.1 | 11.3 | 0.00 | 0.23 | 0.00 | 66 | 1020.1 |
| 20260901100052 | 67 | 283 | 4.3 | 10.4 | 0.00 | 0.25 | 0.00 | 68 | 1020.0 |
| 20260901095552 | 67 | 280 | 7.0 | 15.6 | 0.00 | 0.25 | 0.00 | 68 | 1020.0 |
| 20260901095052 | 67 | 273 | 5.2 | 10.4 | 0.00 | 0.25 | 0.00 | 70 | 1020.0 |
| 20260901094552 | 66 | 283 | 6.1 | 10.4 | 0.00 | 0.25 | 0.00 | 71 | 1020.0 |
| 20260901093052 | 67 | 308 | 4.3 | 11.3 | 0.00 | 0.25 | 0.00 | 71 | 1019.9 |
| 20260901092552 | 67 | 286 | 7.0 | 12.2 | 0.00 | 0.25 | 0.00 | 70 | 1019.9 |
| 20260901092052 | 67 | 307 | 5.2 | 10.4 | 0.00 | 0.25 | 0.00 | 70 | 1019.9 |
| 20260901091551 | 67 | 255 | 5.2 | 12.2 | 0.00 | 0.25 | 0.00 | 70 | 1019.8 |
| 20260901091052 | 67 | 303 | 7.8 | 14.8 | 0.00 | 0.25 | 0.00 | 70 | 1019.8 |
| 20260901081052 | 66 | 295 | 6.1 | 11.3 | 0.00 | 0.25 | 0.00 | 73 | 1019.4 |
| 20260901073052 | 65 | 312 | 4.3 | 10.4 | 0.00 | 0.27 | 0.00 | 79 | 1018.9 |
| 20260901072551 | 65 | 298 | 4.3 | 7.8 | 0.00 | 0.27 | 0.00 | 79 | 1018.9 |
| 20260901072053 | 65 | 291 | 2.6 | 7.0 | 0.00 | 0.27 | 0.00 | 81 | 1018.8 |
| 20260901071551 | 65 | 286 | 3.5 | 6.1 | 0.00 | 0.27 | 0.00 | 81 | 1018.8 |
| 20260901071053 | 64 | 271 | 2.6 | 7.0 | 0.00 | 0.27 | 0.00 | 82 | 1018.7 |
| 20260901070051 | 64 | 299 | 1.7 | 2.6 | 0.00 | 0.27 | 0.00 | 86 | 1018.5 |
| 20260901065052 | 64 | 299 | 0.9 | 2.6 | 0.00 | 0.27 | 0.00 | 87 | 1018.4 |
| 20260901064552 | 63 | 299 | 1.7 | 2.6 | 0.00 | 0.27 | 0.00 | 87 | 1018.4 |
| 20260901063053 | 63 | 299 | 0.9 | 4.3 | 0.00 | 0.28 | 0.00 | 89 | 1018.4 |
| 20260901062551 | 62 | 299 | 0.9 | 2.6 | 0.00 | 0.28 | 0.00 | 90 | 1018.4 |
| 20260901060051 | 62 | 299 | 0.0 | 1.7 | 0.00 | 0.28 | 0.00 | 92 | 1018.2 |
| 20260901055052 | 62 | 299 | 0.0 | 2.6 | 0.00 | 0.28 | 0.00 | 93 | 1018.2 |
| 20260901054551 | 62 | 299 | 1.7 | 2.6 | 0.00 | 0.28 | 0.00 | 93 | 1018.0 |
| 20260901054052 | 62 | 299 | 1.7 | 2.6 | 0.00 | 0.29 | 0.00 | 93 | 1017.9 |
| 20260901053551 | 62 | 299 | 0.9 | 2.6 | 0.00 | 0.31 | 0.00 | 93 | 1017.9 |
| 20260901052052 | 61 | 299 | 0.9 | 1.7 | 0.00 | 0.32 | 0.00 | 93 | 1017.8 |
| 20260901051552 | 61 | 299 | 0.0 | 0.0 | 0.00 | 0.32 | 0.00 | 93 | 1017.7 |
| 20260901051053 | 62 | 299 | 0.9 | 1.7 | 0.00 | 0.32 | 0.00 | 93 | 1017.5 |
| 20260901050051 | 62 | 299 | 0.0 | 0.0 | 0.00 | 0.32 | 0.00 | 93 | 1017.4 |
| 20260901045551 | 62 | 299 | 0.9 | 2.6 | 0.00 | 0.32 | 0.00 | 93 | 1017.4 |
| 20260901043052 | 62 | 299 | 0.0 | 0.0 | 0.00 | 0.32 | 0.00 | 94 | 1017.4 |
| 20260901042551 | 62 | 299 | 0.0 | 0.0 | 0.00 | 0.32 | 0.00 | 94 | 1017.4 |
| 20260901042052 | 61 | 299 | 0.0 | 0.0 | 0.00 | 0.32 | 0.00 | 94 | 1017.3 |
| 20260901040052 | 61 | 299 | 0.0 | 0.0 | 0.00 | 0.32 | 0.00 | 94 | 1017.1 |
| 20260901034052 | 61 | 299 | 0.0 | 1.7 | 0.00 | 0.32 | 0.00 | 94 | 1017.0 |
| 20260901033552 | 62 | 299 | 0.0 | 1.7 | 0.00 | 0.32 | 0.00 | 94 | 1017.0 |
| 20260901030051 | 62 | 299 | 0.0 | 1.7 | 0.00 | 0.32 | 0.00 | 95 | 1016.9 |
| 20260901025551 | 62 | 299 | 0.9 | 2.6 | 0.00 | 0.32 | 0.00 | 95 | 1016.9 |
| 20260901024552 | 61 | 299 | 0.9 | 1.7 | 0.00 | 0.32 | 0.00 | 94 | 1016.9 |
| 20260901024052 | 61 | 299 | 0.0 | 1.7 | 0.00 | 0.32 | 0.00 | 94 | 1016.8 |
| 20260901023551 | 61 | 299 | 0.0 | 1.7 | 0.00 | 0.32 | 0.00 | 94 | 1016.8 |
| 20260901023052 | 61 | 299 | 0.9 | 1.7 | 0.00 | 0.32 | 0.00 | 94 | 1016.8 |
| 20260901022552 | 61 | 299 | 0.0 | 0.9 | 0.00 | 0.32 | 0.00 | 94 | 1016.8 |
| 20260901020051 | 61 | 299 | 0.0 | 0.9 | 0.00 | 0.32 | 0.00 | 94 | 1016.8 |
| 20260901015551 | 61 | 299 | 0.9 | 1.7 | 0.00 | 0.32 | 0.00 | 94 | 1016.8 |
| 20260901010051 | 60 | 299 | 0.9 | 1.7 | 0.00 | 0.32 | 0.00 | 94 | 1016.6 |
| 20260901005551 | 60 | 299 | 0.9 | 2.6 | 0.00 | 0.32 | 0.00 | 94 | 1016.7 |
| 20260901005052 | 60 | 299 | 1.7 | 2.6 | 0.00 | 0.32 | 0.00 | 93 | 1016.7 |
| 20260901004551 | 60 | 299 | 1.7 | 2.6 | 0.00 | 0.32 | 0.00 | 93 | 1016.6 |
| 20260901004052 | 60 | 300 | 0.9 | 2.6 | 0.00 | 0.32 | 0.00 | 93 | 1016.7 |
| 20260901003551 | 60 | 300 | 1.7 | 2.6 | 0.00 | 0.32 | 0.00 | 93 | 1016.6 |
| 20260901003052 | 60 | 300 | 1.7 | 2.6 | 0.00 | 0.32 | 0.00 | 93 | 1016.6 |
| 20260901000051 | 61 | 300 | 0.9 | 1.7 | 0.00 | 0.32 | 0.00 | 93 | 1016.4 |
| 20260831235551 | 61 | 300 | 0.0 | 1.7 | 0.00 | 0.32 | 0.00 | 93 | 1016.3 |
| 20260831233551 | 61 | 300 | 1.7 | 2.6 | 0.00 | 0.32 | 0.00 | 93 | 1016.3 |
| 20260831232551 | 61 | 300 | 1.7 | 2.6 | 0.00 | 0.33 | 0.00 | 93 | 1016.3 |
| 20260831232051 | 61 | 301 | 1.7 | 2.6 | 0.00 | 0.33 | 0.00 | 93 | 1016.3 |
| 20260831225051 | 61 | 304 | 0.0 | 1.7 | 0.01 | 0.33 | 0.00 | 92 | 1016.2 |
| 20260831224551 | 61 | 304 | 0.9 | 2.6 | 0.01 | 0.33 | 0.00 | 92 | 1016.1 |
| 20260831223551 | 61 | 304 | 1.7 | 2.6 | 0.03 | 0.33 | 0.00 | 92 | 1015.9 |
| 20260831223051 | 61 | 304 | 0.0 | 0.0 | 0.04 | 0.33 | 0.00 | 91 | 1015.9 |
| 20260831222551 | 61 | 304 | 0.0 | 0.9 | 0.09 | 0.33 | 0.00 | 91 | 1015.8 |
| 20260831222052 | 61 | 304 | 0.0 | 1.7 | 0.14 | 0.33 | 0.00 | 91 | 1015.8 |
| 20260831221550 | 62 | 304 | 0.0 | 0.9 | 0.14 | 0.33 | 0.00 | 91 | 1015.8 |
| 20260831221053 | 62 | 304 | 0.9 | 2.6 | 0.14 | 0.33 | 0.00 | 90 | 1015.8 |
| 20260831220051 | 62 | 304 | 0.9 | 1.7 | 0.14 | 0.33 | 0.00 | 90 | 1015.8 |
| 20260831214551 | 63 | 304 | 0.0 | 1.7 | 0.13 | 0.32 | 0.32 | 88 | 1015.8 |
| 20260831213051 | 64 | 293 | 3.5 | 7.8 | 0.11 | 0.30 | 0.30 | 86 | 1016.2 |
| 20260831212551 | 65 | 315 | 9.6 | 19.1 | 0.09 | 0.28 | 0.28 | 84 | 1016.3 |
| 20260831212051 | 66 | 248 | 1.7 | 2.6 | 0.00 | 0.19 | 0.19 | 84 | 1015.6 |
| 20260831211551 | 66 | 248 | 1.7 | 2.6 | 0.00 | 0.19 | 0.19 | 83 | 1015.3 |
| 20260831211051 | 66 | 248 | 0.9 | 2.6 | 0.00 | 0.19 | 0.19 | 83 | 1015.3 |
| 20260831205550 | 66 | 248 | 0.9 | 2.6 | 0.00 | 0.19 | 0.19 | 81 | 1015.3 |
| 20260831204051 | 66 | 248 | 0.0 | 1.7 | 0.00 | 0.23 | 0.19 | 80 | 1015.2 |
| 20260831203551 | 66 | 248 | 0.9 | 2.6 | 0.00 | 0.23 | 0.19 | 79 | 1015.2 |
| 20260831203052 | 67 | 248 | 0.9 | 2.6 | 0.00 | 0.24 | 0.19 | 79 | 1015.2 |
| 20260831202051 | 67 | 249 | 2.6 | 4.3 | 0.00 | 0.33 | 0.19 | 78 | 1015.1 |
| 20260831201551 | 67 | 250 | 1.7 | 2.6 | 0.00 | 0.44 | 0.19 | 78 | 1015.0 |
| 20260831201052 | 67 | 250 | 0.9 | 5.2 | 0.00 | 0.45 | 0.19 | 78 | 1014.9 |
| 20260831200051 | 67 | 250 | 1.7 | 4.3 | 0.00 | 0.45 | 0.19 | 78 | 1014.8 |
| 20260831195551 | 68 | 250 | 2.6 | 7.0 | 0.00 | 0.45 | 0.19 | 78 | 1014.8 |
| 20260831195051 | 67 | 250 | 2.6 | 7.0 | 0.00 | 0.45 | 0.19 | 78 | 1014.8 |
| 20260831194550 | 67 | 250 | 2.6 | 5.2 | 0.00 | 0.45 | 0.19 | 78 | 1014.8 |
| 20260831194051 | 67 | 246 | 2.6 | 7.0 | 0.00 | 0.45 | 0.19 | 78 | 1014.8 |
| 20260831193550 | 67 | 247 | 2.6 | 5.2 | 0.00 | 0.45 | 0.19 | 78 | 1014.8 |
| 20260831192051 | 67 | 247 | 1.7 | 6.1 | 0.00 | 0.45 | 0.19 | 77 | 1014.6 |
| 20260831191550 | 67 | 236 | 2.6 | 8.7 | 0.00 | 0.45 | 0.19 | 77 | 1014.6 |
| 20260831191051 | 67 | 261 | 2.6 | 7.0 | 0.00 | 0.45 | 0.19 | 77 | 1014.4 |
| 20260831190050 | 68 | 249 | 2.6 | 6.1 | 0.00 | 0.45 | 0.19 | 76 | 1014.3 |
| 20260831185550 | 68 | 264 | 4.3 | 6.1 | 0.00 | 0.45 | 0.19 | 76 | 1014.3 |
| 20260831184051 | 68 | 259 | 3.5 | 7.8 | 0.00 | 0.45 | 0.19 | 76 | 1014.2 |
| 20260831183550 | 68 | 297 | 2.6 | 8.7 | 0.00 | 0.45 | 0.19 | 75 | 1014.0 |
| 20260831182550 | 68 | 243 | 2.6 | 11.3 | 0.00 | 0.45 | 0.19 | 75 | 1013.8 |
| 20260831182051 | 68 | 256 | 3.5 | 13.0 | 0.00 | 0.45 | 0.19 | 74 | 1013.8 |
| 20260831175051 | 68 | 253 | 5.2 | 11.3 | 0.00 | 0.45 | 0.19 | 74 | 1013.4 |
| 20260831174550 | 68 | 270 | 5.2 | 11.3 | 0.00 | 0.45 | 0.19 | 74 | 1013.3 |
| 20260831171551 | 69 | 287 | 4.3 | 13.0 | 0.00 | 0.45 | 0.19 | 72 | 1013.0 |
| 20260831171050 | 69 | 273 | 6.1 | 15.6 | 0.00 | 0.45 | 0.19 | 72 | 1012.8 |
| 20260831170050 | 69 | 261 | 5.2 | 11.3 | 0.00 | 0.45 | 0.19 | 73 | 1012.7 |
| 20260831165550 | 69 | 273 | 7.0 | 13.0 | 0.00 | 0.45 | 0.19 | 72 | 1012.7 |
| 20260831165050 | 69 | 271 | 6.1 | 11.3 | 0.00 | 0.45 | 0.19 | 72 | 1012.7 |
| 20260831164550 | 69 | 266 | 3.5 | 11.3 | 0.00 | 0.45 | 0.19 | 72 | 1012.7 |
| 20260831162550 | 68 | 281 | 7.8 | 13.0 | 0.00 | 0.45 | 0.19 | 73 | 1012.5 |
| 20260831162050 | 68 | 288 | 8.7 | 14.8 | 0.00 | 0.45 | 0.19 | 74 | 1012.5 |
| 20260831160050 | 68 | 293 | 6.1 | 12.2 | 0.00 | 0.45 | 0.19 | 75 | 1012.2 |
| 20260831155549 | 68 | 288 | 4.3 | 10.4 | 0.00 | 0.45 | 0.19 | 75 | 1012.2 |
| 20260831151550 | 68 | 288 | 7.0 | 17.4 | 0.00 | 0.45 | 0.19 | 73 | 1011.9 |
| 20260831151051 | 68 | 277 | 6.1 | 19.1 | 0.00 | 0.45 | 0.19 | 73 | 1011.8 |
| 20260831150050 | 68 | 246 | 8.7 | 17.4 | 0.00 | 0.45 | 0.19 | 72 | 1011.7 |
| 20260831145550 | 68 | 290 | 6.1 | 17.4 | 0.00 | 0.45 | 0.19 | 72 | 1011.7 |
| 20260831143051 | 67 | 297 | 5.2 | 10.4 | 0.00 | 0.45 | 0.19 | 77 | 1011.3 |
| 20260831142550 | 66 | 269 | 4.3 | 8.7 | 0.00 | 0.45 | 0.19 | 78 | 1011.2 |
| 20260831142050 | 66 | 289 | 6.1 | 13.9 | 0.00 | 0.45 | 0.19 | 78 | 1011.2 |
| 20260831141549 | 66 | 277 | 5.2 | 11.3 | 0.00 | 0.45 | 0.19 | 78 | 1011.1 |
| 20260831141051 | 65 | 294 | 5.2 | 12.2 | 0.00 | 0.45 | 0.19 | 79 | 1011.1 |
| 20260831140050 | 65 | 250 | 6.1 | 12.2 | 0.00 | 0.45 | 0.19 | 79 | 1010.8 |
| 20260831135550 | 66 | 257 | 6.1 | 13.0 | 0.00 | 0.45 | 0.19 | 78 | 1010.8 |
| 20260831134051 | 66 | 278 | 8.7 | 17.4 | 0.00 | 0.45 | 0.19 | 75 | 1010.6 |